Regional Weather Roundup
Issued by NWS

Home | Current Version | Previous Version | Graphics & Text | Print | Product List | Glossary On
Versions: 1 2 3 4 5 6 7 8 9 10 11 12 13 14 15 16 17 18 19 20 21 22 23 24 25 26 27 28 29 30 31 32 33 34 35 36 37 38 39 40 41 42 43 44 45 46 47 48 49 50
000
ASUS45 KPSR 281700
RWRAZ

PRELIMINARY ARIZONA REGIONAL HOURLY WEATHER ROUNDUP
NATIONAL WEATHER SERVICE PHOENIX AZ
1000 AM MST SAT FEB 28 2015

NOTE: FAIR INDICATES FEW OR NO CLOUDS BELOW 12,000 FEET WITH NO
SIGNIFICANT WEATHER AND/OR OBSTRUCTIONS TO VISIBILITY.

AZZ001>003-036-281800-
NORTHWEST ARIZONA

CITY           SKY/WX    TMP DP  RH WIND       PRES   REMARKS
KINGMAN        PTSUNNY   50  35  56 SW17      29.76R
$$

AZZ004>008-015-016-018-281800-
NORTH CENTRAL ARIZONA

CITY           SKY/WX    TMP DP  RH WIND       PRES   REMARKS
GRAND CANYON   CLOUDY    37  29  72 W13G21    29.74R WCI  29
PRESCOTT       CLOUDY    44  31  60 S15G24    29.82R
FLAGSTAFF      FLURRIES  34  30  85 SW22G29   29.78R WCI  22
PAYSON         MIX PCPN  41  41 100 S9G20     29.85S
PAGE           CLOUDY    36  34  92 CALM      29.72S FOG
$$

AZZ009>014-017-281800-
NORTHEAST ARIZONA

CITY           SKY/WX    TMP DP  RH WIND       PRES   REMARKS
WINSLOW        CLOUDY    47  39  74 SW14      29.77S
SAINT JOHNS    CLOUDY    47  34  60 SW22G32   29.80S
WINDOW ROCK    MIX PCPN  35  32  88 S8        29.79R FOG     WCI  29
SHOW LOW       LGT RAIN  37  36  93 S21G33    29.84R WCI  27
$$

AZZ023-281800-
GREATER PHOENIX AREA

CITY           SKY/WX    TMP DP  RH WIND       PRES   REMARKS
PHOENIX        PTSUNNY   65  46  50 S8        29.82R
BUCKEYE        PTSUNNY   61  55  82 W8G17     29.84R
GLENDALE       PTSUNNY   63  52  67 S8        29.84R
LUKE AFB       PTSUNNY   61  54  77 S14       29.81R
DEER VALLEY    CLOUDY    57  50  77 S8        29.83R
SCOTTSDALE     PTSUNNY   60  44  55 S10       29.85R
MESA-FALCON    PTSUNNY   61  43  51 S14       29.84R
MESA-GATEWAY   CLOUDY    61  46  59 S14       29.87R
CHANDLER       CLOUDY    63  46  55 S14G23    29.85R
$$

AZZ027-028-281800-
SOUTHWEST MARICOPA COUNTY AND PINAL COUNTY

CITY           SKY/WX    TMP DP  RH WIND       PRES   REMARKS
CASA GRANDE    CLOUDY    61  45  55 S17G25    29.86S
$$

AZZ503-504-507>509-281800-
SOUTHEAST ARIZONA

CITY           SKY/WX    TMP DP  RH WIND       PRES   REMARKS
TUCSON         MOSUNNY   63  44  50 S25G33    29.91R
DAVIS-MONTHAN  MOSUNNY   62  44  52 S21       29.89S
RYAN FIELD       N/A     63  45  51 S23G29    29.90R
NOGALES        CLOUDY    57  42  57 S15       29.96R
SIERRA VISTA   PTSUNNY   58  39  49 SW7G25    29.93F
DOUGLAS        SUNNY     59  38  45 S21       29.95R
SAFFORD        MOSUNNY   62  37  39 VRB3      29.86R
$$

AZZ020-021-025-026-031-281800-
SOUTHWEST ARIZONA

CITY           SKY/WX    TMP DP  RH WIND       PRES   REMARKS
YUMA           MOSUNNY   66  43  43 W10       29.83R
$$

CAZ031-033-041-043-047-048-061-281800-
SOUTHERN CALIFORNIA

CITY           SKY/WX    TMP DP  RH WIND       PRES   REMARKS
DOWNTOWN L.A.  MOSUNNY   61  45  55 CALM      29.84R
L.A. AIRPORT   PTSUNNY   57  44  62 W10       29.85R
SAN DIEGO      PTSUNNY   61  46  57 W8        29.91R
BURBANK        CLOUDY    55  43  63 S5        29.83R
ONTARIO        PTSUNNY   55  43  63 SW10      29.85R
RIVERSIDE      MOSUNNY   56  41  57 SW6       29.86R
PALM SPRINGS   SUNNY     64  36  35 E8        29.79R
EL CENTRO NAS  MOSUNNY   68  41  37 SW24G33   29.81R
IMPERIAL       SUNNY     67  42  40 SW15      29.81R
BLYTHE         SUNNY     65  41  41 SW14      29.78R
NEEDLES        CLOUDY    64  40  41 CALM      29.74R
$$

NVZ020-UTZ003-281800-
SOUTHERN NEVADA-UTAH

CITY           SKY/WX    TMP DP  RH WIND       PRES   REMARKS
LAS VEGAS      NOT AVBL
SALT LAKE CITY CLOUDY    36  25  64 CALM      29.69R
$$

NMZ009-TXZ055-281800-
NEW MEXICO-WEST TEXAS

CITY           SKY/WX    TMP DP  RH WIND       PRES   REMARKS
ALBUQUERQUE    PTSUNNY   25  20  81 N7        29.95S WCI  17
EL PASO        SUNNY     40  26  57 NE6       30.02F
$$


........................KEY........................
SKY/WX - SKY CONDITION/WEATHER
TMP    - TEMPERATURE IN FAHRENHEIT
DP     - DEW POINT IN FAHRENHEIT
RH     - RELATIVE HUMIDITY IN PERCENT
WIND   - DIRECTION AND SPEED IN MILES PER HOUR (MPH)
VRB    - VARIABLE WIND DIRECTION
PRES   - MEAN SEA LEVEL PRESSURE IN INCHES OF MERCURY
         F - FALLING PRESSURE   R - RISING PRESSURE
         S - STEADY PRESSURE
VSB    - VISIBILITY IN MILES
HX     - HEAT INDEX IN FAHRENHEIT
WCI    - WIND CHILL INDEX IN FAHRENHEIT
TC     - TEMPERATURE IN CELSIUS WHICH IS ALSO KNOWN AS
         TEMPERATURE IN CENTIGRADE
AFB    - AIR FORCE BASE
         LUKE AFB IS LUKE AIR FORCE BASE
         DAVIS-MONTHAN IS DAVIS-MONTHAN AIR FORCE BASE
NAS    - NAVAL AIR STATION
         EL CENTRO NAS IS EL CENTRO NAVAL AIR STATION
N/A    - NOT AVAILABLE



USA.gov is the U.S. government's official web portal to all federal, state and local government web resources and services.